Regional Weather Roundup
Issued by NWS

Home | Current Version | Previous Version | Graphics & Text | Print | Product List | Glossary On
Versions: 1 2 3 4 5 6 7 8 9 10 11 12 13 14 15 16 17 18 19 20 21 22 23 24 25 26 27 28 29 30 31 32 33 34 35 36 37 38 39 40 41 42 43 44 45 46 47 48 49 50
000
ASUS43 KLOT 230258
RWRIL

ILLINOIS REGIONAL WEATHER ROUNDUP
NATIONAL WEATHER SERVICE CHICAGO/ROMEOVILLE IL
1000 PM CDT TUE JUL 22 2014

NOTE: "FAIR" INDICATES FEW OR NO CLOUDS BELOW 12,000 FEET WITH NO
SIGNIFICANT WEATHER AND/OR OBSTRUCTIONS TO VISIBILITY.

* THESE STATIONS ARE NOT UNDER NWS QUALITY CONTROL. THEY ALSO MAY NOT
  REPORT WEATHER SUCH AS PRECIPITATION OR FOG.

ILZ001-002-007-009-015-016-024-230400-
NORTHWEST ILLINOIS

CITY           SKY/WX    TMP DP  RH WIND       PRES   REMARKS
MOLINE         PTCLDY    80  77  90 W6        29.99R FOG     HX  87
$$

ILZ003-004-008-010-011-017-018-230400-
NORTH CENTRAL ILLINOIS

CITY           SKY/WX    TMP DP  RH WIND       PRES   REMARKS
ROCKFORD       NOT AVBL
$$

ILZ005-006-012>014-019>023-230400-
NORTHEAST ILLINOIS

CITY           SKY/WX    TMP DP  RH WIND       PRES   REMARKS
CHICAGO-OHARE  CLOUDY    84  73  69 SW9       29.94F HX  90
CHICAGO-MIDWAY MOCLDY    85  76  74 SW10      29.95S HX  94
AURORA         MOCLDY    81  74  79 SW10      29.97S HX  86
WAUKEGAN       MOCLDY    82  75  79 VRB6      29.92S HX  89
DUPAGE AIRPORT PTCLDY    81  75  82 SW13      29.96S HX  87
WHEELING       PTCLDY    85  75  72 SW9       29.94F HX  93
$$

LMZ740>746-230400-
SOUTHERN LAKE MICHIGAN

STATION/POSITION SKY/WX   TEMP    WIND        PRES    VSBY  WAVE
                          AIR SEA DIR/SP/G                  HT/PER
                          (F)     (DEG/KT/KT) (MB)    (MI)  (FT/S)
SOUTHERN BUOY              71 66  210/ 10/ 12 1012.5F         1/ 4
WAUKEGAN HARBOR            83     230/ 10/ 15 1013.9F
HARRISON CRIB              83     220/ 17/ 25   N/A
BURNHAM HARBOR             84     250/  4/ 13   N/A
CALUMET HARBOR             82     200/  7/ 10 1013.3R
BURNS HARBOR               82     210/ 11/ 14 1014.9S
MICHIGAN CITY              81     180/ 11/ 14   N/A
$$

ILZ025>027-034>036-040-047-049-050-058-095>099-230400-
WEST-CENTRAL ILLINOIS

CITY           SKY/WX    TMP DP  RH WIND       PRES   REMARKS
$$

ILZ028>032-037-038-041>044-048-051>054-059>061-230400-
CENTRAL ILLINOIS

CITY           SKY/WX    TMP DP  RH WIND       PRES   REMARKS
PEORIA         NOT AVBL
SPRINGFIELD    CLOUDY    82  72  71 SW6       30.02R HX  87
TAYLORVILLE    NOT AVBL
$$

ILZ033-039-045-046-055>057-062-063-230400-
EAST-CENTRAL ILLINOIS

CITY           SKY/WX    TMP DP  RH WIND       PRES   REMARKS
CHAMPAIGN      MOCLDY    75  72  90 SW6       30.03R
$$

ILZ079-100>102-230400-
SOUTHWEST ILLINOIS

CITY           SKY/WX    TMP DP  RH WIND       PRES   REMARKS
CAHOKIA*       LGT RAIN  82  70  66 VRB3      30.01F HX  86
$$

ILZ064>066-069>071-074>076-080>082-084>086-088>090-092>094-230400-
SOUTH-CENTRAL ILLINOIS

CITY           SKY/WX    TMP DP  RH WIND       PRES   REMARKS
CARBONDALE     CLEAR     73  69  87 S3        30.05S
$$

ILZ067-068-072-073-078-083-087-091-230400-
SOUTHEAST ILLINOIS

CITY           SKY/WX    TMP DP  RH WIND       PRES   REMARKS
FLORA*         CLEAR     74  69  86 S6        30.04F
$$

ABBREVIATIONS USED IN REMARKS
   TC - TEMPERATURE IN CELSIUS
  WCI - WIND CHILL INDEX
   HX - HEAT INDEX
  VSB - VISIBILITY
$$




USA.gov is the U.S. government's official web portal to all federal, state and local government web resources and services.